This is the latest recevied weather packets stored in our database for station/object K3BAY-1. If no packets are shown the sender has not sent any weather packets the latest 10 day(s).
| Time | Temp. | Humidity | Pressure | Rain* | Wind** | Luminosity | Snow |
|---|---|---|---|---|---|---|---|
| 1777040213 | 20° C | 44% | 1008.4 hPa | 0 mm | - | 66 W/m² | - |
| 1777039913 | 20° C | 45% | 1008.4 hPa | 0 mm | - | 64 W/m² | - |
| 1777039604 | 20° C | 43% | 1008.4 hPa | 0 mm | - | 62 W/m² | - |
| 1777039298 | 20° C | 45% | 1008.1 hPa | 0 mm | - | 62 W/m² | - |
| 1777038994 | 20° C | 45% | 1008.1 hPa | 0 mm | - | 60 W/m² | - |
| 1777038690 | 20° C | 46% | 1008.1 hPa | 0 mm | - | 60 W/m² | - |
| 1777038385 | 19.44° C | 49% | 1008.1 hPa | 0 mm | - | 59 W/m² | - |
| 1777038080 | 18.89° C | 48% | 1007.7 hPa | 0 mm | - | 58 W/m² | - |
| 1777037776 | 18.89° C | 56% | 1007.7 hPa | 0 mm | - | 57 W/m² | - |
| 1777037472 | 18.33° C | 63% | 1007.7 hPa | 0 mm | - | 57 W/m² | - |
| 1777037169 | 18.33° C | 65% | 1007.7 hPa | 0 mm | - | 57 W/m² | - |
| 1777036866 | 17.78° C | 68% | 1007.7 hPa | 0 mm | - | 57 W/m² | - |
| 1777036563 | 17.78° C | 68% | 1007.4 hPa | 0 mm | - | 181 W/m² | - |
| 1777036262 | 17.78° C | 68% | 1007.4 hPa | 0 mm | - | 56 W/m² | - |
| 1777035960 | 18.33° C | 69% | 1007.7 hPa | 0 mm | - | 53 W/m² | - |
| 1777035654 | 18.33° C | 68% | 1007 hPa | 0 mm | - | 52 W/m² | - |
| 1777035350 | 18.33° C | 69% | 1007 hPa | 0 mm | - | 52 W/m² | - |
| 1777035046 | 17.78° C | 70% | 1007 hPa | 0 mm | - | 51 W/m² | - |
| 1777034743 | 17.78° C | 72% | 1007 hPa | 0 mm | - | 50 W/m² | - |
| 1777034440 | 17.78° C | 73% | 1007 hPa | 0 mm | - | 50 W/m² | - |
| 1777034136 | 17.22° C | 81% | 1007 hPa | 0 mm | - | 49 W/m² | - |
| 1777033835 | 17.22° C | 81% | 1006.7 hPa | 0 mm | - | 48 W/m² | - |
| 1777033533 | 16.67° C | 81% | 1006.7 hPa | 0 mm | - | 47 W/m² | - |
| 1777033230 | 16.67° C | 81% | 1006.7 hPa | 0 mm | - | 47 W/m² | - |
| 1777032927 | 16.67° C | 81% | 1006.4 hPa | 0 mm | - | 48 W/m² | - |
* Rain latest hour (hover to see other rain measurements)
** Current wind speed in m/s (hover to see current wind gust speed)